[[{"header":{"parameterUnit":"m.s-1","parameterCategory":1,"la1":30.2991,"la2":30.254,"lo1":-89.0895,"lo2":-89.0444,"dy":0.0017,"dx":0.0017,"nx":28,"ny":28,"refTime":"2024-10-22T03:00:00:Z","depth":0,"parameterNumber":2,"parameterNumberName":"U-component_of_WINDS"},"data":[0,0,0,0,0,0,0,0,0,0,0,0,0,0,0,0,0,0,0,0,0,0,0,0,0,0,0,0,0,0,0,0,0,0,0,0,0,0,0,0,0,0,0,0,0,0,0,0,0,0,0,0,0,0,0,0,0,0,-0.7219,-0.7219,0,-0.7255,-0.7255,-0.7256,-0.7234,-0.7233,-0.7232,-0.7231,-0.727,-0.7272,-0.7273,0,0,0,0,0,0,0,0,0,0,0,0,0,-0.7133,-0.7134,-0.7218,-0.7219,-0.7219,-0.7255,-0.7255,-0.7256,-0.7234,-0.7233,-0.7231,-0.723,-0.7269,-0.7271,-0.7274,0,0,0,0,0,0,0,0,0,0,0,0,0,-0.717,-0.7135,-0.7218,-0.7213,-0.7213,-0.7255,-0.7255,-0.7256,-0.7234,-0.7233,-0.7231,-0.723,-0.7268,-0.7271,-0.7274,-0.7324,0,0,-0.7283,-0.7285,0,0,0,0,0,0,0,0,-0.7167,-0.7173,-0.7213,-0.7213,-0.7213,-0.7238,-0.7239,-0.7279,-0.7235,-0.7226,-0.7231,-0.7229,-0.726,-0.7264,-0.7274,-0.7326,-0.7328,-0.7284,-0.7285,-0.7287,-0.7288,0,0,0,0,0,0,0,-0.7165,-0.7171,-0.7233,-0.7214,-0.7214,-0.7209,-0.7213,-0.7247,-0.7252,-0.7227,-0.7225,-0.723,-0.726,-0.7272,-0.7275,-0.7328,-0.7283,-0.7286,-0.7288,-0.7289,-0.7425,-0.7427,0,0,0,0,0,0,-0.7163,-0.7169,-0.7232,-0.7234,-0.7186,-0.7212,-0.7216,-0.7232,-0.7251,-0.7253,-0.7231,-0.7229,-0.7267,-0.7272,-0.7276,-0.7338,-0.7287,-0.7289,-0.7291,-0.7423,-0.7425,-0.7427,0,0,0,0,0,0,-0.7161,-0.7168,-0.723,-0.7201,-0.7209,-0.7215,-0.7233,-0.7233,-0.7245,-0.7255,-0.7256,-0.7242,-0.7266,-0.7272,-0.7313,-0.7339,-0.7291,-0.7294,-0.7421,-0.7424,-0.7426,-0.746,0,0,0,0,0,0,-0.7158,-0.7168,-0.7186,-0.7202,-0.721,-0.7265,-0.7235,-0.7235,-0.725,-0.7247,-0.7265,-0.7266,-0.7265,-0.7308,-0.7316,-0.7342,-0.7296,-0.7419,-0.7422,-0.7425,-0.7457,-0.7463,-0.7469,0,0,0,0,0,-0.7155,-0.7194,-0.7187,-0.7195,-0.7233,-0.7267,-0.7272,-0.727,-0.7252,-0.7271,-0.7278,-0.7266,-0.7335,-0.7313,-0.7321,-0.7348,-0.7417,-0.7421,-0.7425,-0.7454,-0.7462,-0.7469,0,0,0,0,0,0,-0.7182,-0.7196,-0.7189,-0.7233,-0.7249,-0.7263,-0.7287,-0.7278,-0.73,-0.7296,-0.7293,-0.7298,-0.734,-0.7348,-0.7324,-0.7399,-0.7373,-0.7379,-0.7392,-0.74,-0.7406,-0.7404,-0.7298,0,0,0,0,0,-0.7193,-0.7218,-0.723,-0.7268,-0.7276,-0.7281,-0.7295,-0.7292,-0.7308,-0.7315,-0.7325,-0.7341,-0.7367,-0.7384,-0.7408,-0.7458,-0.7462,-0.7481,-0.7487,-0.7492,-0.7497,-0.7526,-0.7535,-0.7441,-0.744,-0.744,0,0,-0.7216,-0.7227,-0.7243,-0.7274,-0.7286,-0.7313,-0.7286,-0.7316,-0.7336,-0.732,-0.7359,-0.7367,-0.7385,-0.7431,-0.7452,-0.7439,-0.7524,-0.7497,-0.7501,-0.7504,-0.7531,-0.754,-0.7548,-0.7443,-0.7443,-0.7442,0,0,-0.7273,-0.7283,-0.7317,-0.7329,-0.7347,-0.735,-0.7358,-0.7374,-0.7378,-0.7418,-0.7406,-0.7431,-0.7474,-0.7489,-0.7502,-0.7565,-0.7555,-0.7573,-0.7606,-0.7634,-0.7641,-0.7648,-0.7672,-0.768,-0.7578,-0.7578,-0.7578,0,-0.7299,-0.7339,-0.7335,-0.7366,-0.7381,-0.7367,-0.7402,-0.7414,-0.744,-0.745,-0.7436,-0.7491,-0.7503,-0.7552,-0.7568,-0.7578,-0.7589,-0.7571,-0.7641,-0.7647,-0.7653,-0.7676,-0.7685,-0.758,-0.758,-0.758,-0.7579,0,-0.7372,-0.74,-0.7425,-0.745,-0.7467,-0.75,-0.7502,-0.752,-0.7516,-0.7521,-0.7562,-0.7575,-0.7602,-0.7614,-0.761,-0.7663,-0.7655,-0.7641,-0.7615,-0.7664,-0.7686,-0.7694,-0.7583,-0.7582,-0.7582,-0.7581,0,0,-0.7445,-0.7468,-0.7478,-0.7489,-0.7509,-0.7531,-0.7564,-0.759,-0.7606,-0.7624,-0.7653,-0.7691,-0.7678,-0.7693,-0.769,-0.7715,-0.7766,-0.7697,-0.7698,-0.7711,-0.7827,-0.7838,-0.7848,-0.7759,-0.7761,-0.7762,-0.7826,0,-0.7504,-0.756,-0.7559,-0.7612,-0.7638,-0.7626,-0.7655,-0.7671,-0.7676,-0.77,-0.7706,-0.7734,-0.7714,-0.7723,-0.7747,-0.7754,-0.7789,-0.775,-0.7786,-0.7788,-0.7783,-0.7859,-0.7871,-0.793,-0.7834,-0.7835,-0.7836,0,-0.7579,-0.76,-0.7656,-0.7673,-0.7684,-0.7709,-0.7734,-0.7757,-0.7775,-0.7777,-0.7795,-0.7789,-0.7823,-0.7796,-0.7845,-0.7818,-0.7833,-0.7839,-0.7842,-0.7846,-0.7815,-0.7866,-0.7949,-0.7958,-0.7849,-0.7848,-0.7847,0,-0.7629,-0.7671,-0.771,-0.772,-0.774,-0.7759,-0.7768,-0.7785,-0.7801,-0.7823,-0.7834,-0.786,-0.7874,-0.7894,-0.7896,-0.7876,-0.7946,-0.7918,-0.795,-0.795,-0.7965,-0.7964,-0.8053,-0.7974,-0.7973,-0.7973,-0.7973,0,-0.7694,-0.7729,-0.7732,-0.7757,-0.7796,-0.7794,-0.7833,-0.7841,-0.7856,-0.7883,-0.7873,-0.7898,-0.7899,-0.7925,-0.7927,-0.7967,-0.7974,-0.7978,-0.7978,-0.7979,-0.7978,-0.7989,-0.7985,-0.7976,-0.7975,-0.7975,-0.7974,0,-0.7756,-0.776,-0.7802,-0.7818,-0.7823,-0.7851,-0.7865,-0.7889,-0.7894,-0.7927,-0.7935,-0.7943,-0.7973,-0.7977,-0.8012,-0.8014,-0.8063,-0.8058,-0.8057,-0.8056,-0.8088,-0.8085,-0.8187,-0.82,-0.8112,-0.8112,-0.8113,0,-0.7798,-0.7825,-0.7844,-0.7861,-0.7871,-0.7898,-0.7915,-0.7915,-0.7933,-0.7956,-0.7977,-0.8007,-0.803,-0.8079,-0.8089,-0.8116,-0.8113,-0.8147,-0.8117,-0.8118,-0.8115,-0.8113,-0.8117,-0.8153,-0.8154,-0.8154,-0.8155,0,-0.7873,-0.7874,-0.7898,-0.7923,-0.7943,-0.7963,-0.7982,-0.7996,-0.7999,-0.802,-0.805,-0.8069,-0.8105,-0.8135,-0.8162,-0.8173,-0.8165,-0.8164,-0.8173,-0.8175,-0.8173,-0.8176,-0.8073,-0.8162,-0.8161,-0.8161,-0.816,-0.816,-0.7927,-0.795,-0.7968,-0.7996,-0.801,-0.8028,-0.8051,-0.8059,-0.8084,-0.8114,-0.8112,-0.8147,-0.8165,-0.8201,-0.8214,-0.8242,-0.8231,-0.8243,-0.8247,-0.825,-0.8254,-0.8168,-0.8246,-0.8246,-0.8246,-0.8246,-0.8246,0,-0.8002,-0.8013,-0.8038,-0.8065,-0.8087,-0.8077,-0.8098,-0.8117,-0.8147,-0.8165,-0.8189,-0.8225,-0.8254,-0.8266,-0.8295,-0.8315,-0.8312,-0.8322,-0.8321,-0.8324,-0.8261,-0.8251,-0.8324,-0.8324,-0.8324,-0.8324,-0.8324,-0.8324,-0.8044,-0.8083,-0.8086,-0.8134,-0.8144,-0.8177,-0.819,-0.8207,-0.8222,-0.8263,-0.8287,-0.8294,-0.831,-0.834,-0.8367,-0.837,-0.8382,-0.8394,-0.8396,-0.8336,-0.8329,-0.8321,-0.8312,-0.8396,-0.8396,-0.8457,-0.8457,-0.8457]},{"header":{"parameterUnit":"m.s-1","parameterCategory":1,"la1":30.2991,"la2":30.254,"lo1":-89.0895,"lo2":-89.0444,"dy":0.0017,"dx":0.0017,"nx":28,"ny":28,"refTime":"2024-10-22T03:00:00:Z","depth":0,"parameterNumber":3,"parameterNumberName":"V-component_of_WINDS"},"data":[0,0,0,0,0,0,0,0,0,0,0,0,0,0,0,0,0,0,0,0,0,0,0,0,0,0,0,0,0,0,0,0,0,0,0,0,0,0,0,0,0,0,0,0,0,0,0,0,0,0,0,0,0,0,0,0,0,0,-0.0042,-0.0042,0,-0.0074,-0.0075,-0.0075,-0.009,-0.009,-0.009,-0.009,-0.0124,-0.0125,-0.0126,0,0,0,0,0,0,0,0,0,0,0,0,0,0.0007,0.0006,-0.0042,-0.0042,-0.0042,-0.0074,-0.0075,-0.0075,-0.009,-0.009,-0.009,-0.009,-0.0124,-0.0125,-0.0126,0,0,0,0,0,0,0,0,0,0,0,0,0,-0.0019,0.0006,-0.0042,-0.0054,-0.0055,-0.0074,-0.0075,-0.0075,-0.009,-0.009,-0.009,-0.009,-0.0124,-0.0125,-0.0126,-0.0136,0,0,-0.0131,-0.0131,0,0,0,0,0,0,0,0,-0.0017,-0.0021,-0.0052,-0.0053,-0.0055,-0.0078,-0.007,-0.0096,-0.009,-0.0077,-0.009,-0.009,-0.0109,-0.0112,-0.0118,-0.0138,-0.0139,-0.0131,-0.0132,-0.0132,-0.0133,0,0,0,0,0,0,0,-0.0016,-0.0019,-0.0055,-0.0052,-0.0054,-0.0058,-0.0061,-0.0075,-0.0093,-0.0078,-0.0079,-0.0083,-0.011,-0.0117,-0.0119,-0.014,-0.0131,-0.0132,-0.0133,-0.0134,-0.0169,-0.0169,0,0,0,0,0,0,-0.0012,-0.0018,-0.0054,-0.0056,-0.0035,-0.0059,-0.0063,-0.0071,-0.0093,-0.0096,-0.0083,-0.0083,-0.0114,-0.0117,-0.012,-0.0133,-0.0132,-0.0134,-0.0134,-0.0169,-0.0169,-0.0169,0,0,0,0,0,0,-0.0011,-0.0015,-0.0052,-0.0037,-0.0042,-0.006,-0.0068,-0.0071,-0.0078,-0.0096,-0.01,-0.0086,-0.0114,-0.0118,-0.0132,-0.0134,-0.0134,-0.0136,-0.0169,-0.0169,-0.0169,-0.0158,0,0,0,0,0,0,-0.0009,-0.0014,-0.0018,-0.0037,-0.0043,-0.0063,-0.0068,-0.0072,-0.008,-0.0081,-0.01,-0.0104,-0.0115,-0.013,-0.0133,-0.0136,-0.0137,-0.0169,-0.0169,-0.0169,-0.0159,-0.0158,-0.0158,0,0,0,0,0,-0.0007,-0.0014,-0.0018,-0.0022,-0.0048,-0.0063,-0.0067,-0.0079,-0.008,-0.0084,-0.0096,-0.0103,-0.0133,-0.0131,-0.0135,-0.0139,-0.0169,-0.0169,-0.0169,-0.0159,-0.0158,-0.0158,0,0,0,0,0,0,0.0006,-0.0016,-0.0021,-0.0034,-0.0047,-0.0066,-0.0071,-0.0078,-0.009,-0.0091,-0.0106,-0.011,-0.0123,-0.0132,-0.0129,-0.0149,-0.0152,-0.0153,-0.0142,-0.0142,-0.0142,-0.0139,-0.0138,0,0,0,0,0,0.0007,-0.0004,-0.0022,-0.0032,-0.0038,-0.0053,-0.006,-0.0069,-0.0083,-0.0088,-0.0101,-0.0114,-0.0127,-0.0135,-0.0148,-0.016,-0.0165,-0.0164,-0.0164,-0.0164,-0.0164,-0.0172,-0.0172,-0.017,-0.017,-0.017,0,0,0.001,-0.0003,-0.0009,-0.0029,-0.004,-0.0051,-0.0058,-0.0069,-0.0077,-0.009,-0.0104,-0.0114,-0.013,-0.0143,-0.0149,-0.0151,-0.0166,-0.0164,-0.0163,-0.0164,-0.0172,-0.0172,-0.0173,-0.017,-0.017,-0.017,0,0,0.0009,-0.0002,-0.0011,-0.0022,-0.0038,-0.0048,-0.005,-0.0069,-0.0076,-0.009,-0.0099,-0.011,-0.0131,-0.0142,-0.0151,-0.0156,-0.0163,-0.0159,-0.0157,-0.0164,-0.0165,-0.0165,-0.0167,-0.0167,-0.016,-0.016,-0.016,0,0.0015,-0.0002,-0.0015,-0.0026,-0.0034,-0.0046,-0.0055,-0.0065,-0.0085,-0.0091,-0.0092,-0.012,-0.0131,-0.0147,-0.0148,-0.0155,-0.0158,-0.0157,-0.0163,-0.0164,-0.0164,-0.0166,-0.0167,-0.0159,-0.016,-0.016,-0.016,0,0.0005,-0.0006,-0.0012,-0.003,-0.0039,-0.005,-0.0064,-0.0072,-0.0079,-0.009,-0.0104,-0.0118,-0.0134,-0.0138,-0.0146,-0.0156,-0.0156,-0.016,-0.0163,-0.0164,-0.0166,-0.0167,-0.0159,-0.0159,-0.0159,-0.0159,0,0,0.0012,-0.0013,-0.0015,-0.0024,-0.0043,-0.0052,-0.0063,-0.0078,-0.0085,-0.0098,-0.0108,-0.0126,-0.013,-0.0139,-0.0148,-0.0154,-0.0158,-0.0158,-0.0158,-0.0157,-0.017,-0.0167,-0.0167,-0.0162,-0.0163,-0.0163,-0.0168,0,0.0009,-0.0011,-0.0023,-0.0038,-0.0049,-0.006,-0.007,-0.0082,-0.0092,-0.0103,-0.0114,-0.0127,-0.0131,-0.0137,-0.0144,-0.0156,-0.016,-0.0156,-0.0172,-0.0172,-0.0168,-0.0168,-0.0165,-0.017,-0.0169,-0.017,-0.017,0,0.0002,-0.0011,-0.0027,-0.0045,-0.005,-0.0058,-0.0073,-0.0083,-0.0098,-0.0105,-0.0116,-0.0125,-0.0137,-0.0139,-0.0156,-0.0152,-0.016,-0.0167,-0.0167,-0.0169,-0.0171,-0.0171,-0.0172,-0.0172,-0.0171,-0.0171,-0.0171,0,0.0008,-0.0013,-0.0025,-0.0033,-0.0054,-0.0059,-0.0068,-0.0083,-0.0092,-0.0105,-0.0111,-0.0125,-0.0133,-0.0145,-0.0158,-0.0158,-0.0174,-0.0176,-0.018,-0.018,-0.0183,-0.0183,-0.0185,-0.0187,-0.0187,-0.0187,-0.0187,0,0.0006,-0.0004,-0.0023,-0.0031,-0.0042,-0.0055,-0.0066,-0.0076,-0.0089,-0.0099,-0.011,-0.0119,-0.0135,-0.0147,-0.0157,-0.017,-0.0173,-0.0179,-0.0182,-0.0179,-0.0178,-0.0184,-0.0184,-0.0187,-0.0187,-0.0187,-0.0187,0,0.0011,-0.0002,-0.0017,-0.0036,-0.0041,-0.0048,-0.0065,-0.0073,-0.0083,-0.0096,-0.0099,-0.0116,-0.013,-0.0144,-0.0163,-0.0169,-0.0182,-0.0186,-0.0177,-0.0179,-0.0182,-0.0181,-0.0188,-0.019,-0.019,-0.019,-0.019,0,0.001,0.0002,-0.0017,-0.0025,-0.0034,-0.0046,-0.0054,-0.0068,-0.0077,-0.0095,-0.0101,-0.0115,-0.0128,-0.015,-0.0164,-0.0178,-0.0182,-0.0184,-0.0184,-0.0181,-0.0183,-0.0182,-0.0183,-0.0183,-0.0183,-0.0183,-0.0183,0,0.001,0.0003,-0.0009,-0.0023,-0.0034,-0.0046,-0.0058,-0.0064,-0.008,-0.009,-0.0104,-0.0114,-0.0133,-0.0147,-0.0164,-0.0173,-0.0181,-0.0183,-0.0184,-0.0181,-0.0176,-0.0179,-0.0176,-0.0183,-0.0183,-0.0183,-0.0183,-0.0183,0.0011,0.0004,-0.0011,-0.0025,-0.0035,-0.0047,-0.0056,-0.0067,-0.0079,-0.0096,-0.0103,-0.0118,-0.0133,-0.0155,-0.0165,-0.0177,-0.0179,-0.0181,-0.0182,-0.0182,-0.0182,-0.0174,-0.018,-0.018,-0.018,-0.018,-0.018,0,0.001,-0.0,-0.0012,-0.0029,-0.004,-0.0046,-0.0061,-0.0069,-0.0082,-0.0095,-0.0107,-0.0124,-0.0138,-0.0153,-0.0168,-0.0175,-0.0179,-0.0178,-0.0178,-0.018,-0.0179,-0.0176,-0.0175,-0.0175,-0.0175,-0.0175,-0.0175,-0.0175,0.0009,-0.0004,-0.0013,-0.0031,-0.0042,-0.0056,-0.0063,-0.0074,-0.0085,-0.0103,-0.0115,-0.0125,-0.0139,-0.0155,-0.0169,-0.0173,-0.0178,-0.0177,-0.0182,-0.018,-0.018,-0.0181,-0.0178,-0.0178,-0.0178,-0.0182,-0.0182,-0.0182]}]]